Location: Zagreb
(45.8000°N, 16.0000°E)
Time: 02:27:09
(UTC+02:00)

ISS - Visible Passes

Search period start: 07 May 2016 00:00
Search period end: 17 May 2016 00:00
Orbit: 402 x 405 km, 51.6° (Epoch: 06 May)

Date Brightness Start Highest point End Pass type
(mag) Time Alt. Az. Time Alt. Az. Time Alt. Az.
10 May -1.0 04:15:05 10° S 04:17:08 16° SE 04:19:11 10° E visible
12 May -2.1 04:06:19 18° SSW 04:08:09 32° SE 04:11:07 10° ENE visible
13 May -1.4 03:15:39 19° SE 03:15:43 19° SE 03:18:05 10° E visible
13 May -3.2 04:48:35 10° WSW 04:51:51 74° NNW 04:55:08 10° ENE visible
14 May -3.3 03:57:33 25° SW 03:59:15 68° SSE 04:02:29 10° ENE visible
15 May -2.6 03:06:45 38° SE 03:06:45 38° SE 03:09:45 10° ENE visible
15 May -2.4 04:39:58 10° W 04:43:08 44° NNW 04:46:17 10° NE visible
16 May -0.8 02:15:55 15° E 02:15:55 15° E 02:16:48 10° E visible
16 May -3.1 03:48:31 22° WSW 03:50:25 64° NNW 03:53:40 10° ENE visible
